KLM896 ZSPD-EHAM

Flight info

Callsign KLM896
Flight time N/A
Altitude 34100
Route PIK81D PIKAS G330 PIMOL A593 DALIM W157 BEKDO/K0902S1070 W157 VYK G212 SOTMU/K0906S1040 B339 ASILA A575 UPREK W28 LAXAG/K0898S1100 W28 ATBUG W66 NUKTI B215 KABDO W119 GOBOK A343 RULAD/K0880F380 M610 ARBOL Z621 GENDI N147 OTBOR/N0482F380 A480 TIMGA B476 TABAB/N0487F400 B476 METKA L88 NIJAT N644 TETRO M10 SARPI UM10 GOKPA UL746 ODERO DCT LUGEB DCT AMRAX DCT KATQA DCT ELMEK DCT VEXIL DCT KATCE DCT NORKU
Aircraft B772/H-SDE2E3FGHIJ5LORVWXY/LB1D1

Departure

Time 2026-05-06 07:02
Airport Shanghai Pudong International Airport (ZSPD)

Arrival

Time N/A
Airport Amsterdam Airport Schiphol (EHAM)
Time Latitude Longitude Altitude Speed Heading
2026-05-06 06:44 31.14805 121.79768 26 ft 0 kts 72°
2026-05-06 06:51 31.14804 121.79765 26 ft 2 kts 72°
2026-05-06 06:51 31.14798 121.79744 29 ft 3 kts 72°
2026-05-06 06:51 31.14792 121.79722 25 ft 3 kts 72°
2026-05-06 06:51 31.14788 121.79708 25 ft 3 kts 69°
2026-05-06 06:52 31.14780 121.79689 25 ft 3 kts 47°
2026-05-06 06:52 31.14763 121.79674 25 ft 3 kts
2026-05-06 06:52 31.14752 121.79674 26 ft 3 kts 348°
2026-05-06 06:52 31.14736 121.79679 25 ft 3 kts 342°
2026-05-06 06:53 31.14726 121.79683 26 ft 1 kts 342°
2026-05-06 06:53 31.14724 121.79683 27 ft 0 kts 342°
2026-05-06 06:55 31.14728 121.79682 27 ft 3 kts 342°
2026-05-06 06:55 31.14776 121.79664 27 ft 10 kts 342°
2026-05-06 06:56 31.14841 121.79639 27 ft 10 kts 342°
2026-05-06 06:56 31.14905 121.79615 27 ft 10 kts 340°
2026-05-06 06:56 31.14929 121.79543 27 ft 11 kts 259°
2026-05-06 06:56 31.14907 121.79461 27 ft 11 kts 252°
2026-05-06 06:57 31.14885 121.79379 27 ft 10 kts 252°
2026-05-06 06:57 31.14885 121.79300 28 ft 10 kts 304°
2026-05-06 06:57 31.14949 121.79262 28 ft 10 kts 341°
2026-05-06 06:57 31.15038 121.79228 27 ft 17 kts 342°
2026-05-06 06:58 31.15153 121.79184 27 ft 17 kts 342°
2026-05-06 06:58 31.15267 121.79141 27 ft 17 kts 342°
2026-05-06 06:58 31.15382 121.79098 27 ft 17 kts 342°
2026-05-06 06:58 31.15497 121.79055 26 ft 17 kts 342°
2026-05-06 06:59 31.15612 121.79012 27 ft 17 kts 342°
2026-05-06 06:59 31.15727 121.78969 27 ft 17 kts 342°
2026-05-06 06:59 31.15842 121.78925 27 ft 17 kts 342°
2026-05-06 06:59 31.15956 121.78882 27 ft 17 kts 342°
2026-05-06 07:00 31.16063 121.78842 27 ft 12 kts 342°
2026-05-06 07:00 31.16121 121.78819 27 ft 7 kts 338°
2026-05-06 07:00 31.16148 121.78756 27 ft 10 kts 261°
2026-05-06 07:00 31.16128 121.78677 27 ft 9 kts 252°
2026-05-06 07:01 31.16111 121.78629 27 ft 6 kts 232°
2026-05-06 07:01 31.16076 121.78620 27 ft 4 kts 171°
2026-05-06 07:01 31.16049 121.78628 26 ft 8 kts 163°
2026-05-06 07:01 31.15837 121.78708 27 ft 66 kts 162°
2026-05-06 07:02 31.15167 121.78960 27 ft 134 kts 162°
2026-05-06 07:02 31.14104 121.79359 40 ft 185 kts 162°
2026-05-06 07:02 31.12866 121.79796 857 ft 176 kts 161°
2026-05-06 07:02 31.11716 121.80201 1702 ft 180 kts 164°
2026-05-06 07:03 31.10448 121.80635 2058 ft 198 kts 163°
2026-05-06 07:03 31.09049 121.81119 2311 ft 223 kts 163°
2026-05-06 07:03 31.07475 121.81645 2578 ft 246 kts 165°
2026-05-06 07:03 31.05790 121.82179 3187 ft 252 kts 165°
2026-05-06 07:04 31.04089 121.82727 3874 ft 254 kts 164°
2026-05-06 07:04 31.02356 121.83150 4519 ft 257 kts 180°
2026-05-06 07:04 31.00601 121.82744 5100 ft 262 kts 204°
2026-05-06 07:04 30.99113 121.81512 5687 ft 267 kts 226°
2026-05-06 07:05 30.98183 121.79644 6231 ft 269 kts 251°
2026-05-06 07:05 30.97642 121.77545 6691 ft 273 kts 252°
2026-05-06 07:05 30.97076 121.75415 7257 ft 275 kts 252°
2026-05-06 07:05 30.96499 121.73289 7860 ft 275 kts 253°
2026-05-06 07:06 30.96265 121.71088 8225 ft 278 kts 278°
2026-05-06 07:06 30.96664 121.68872 8631 ft 282 kts 282°
2026-05-06 07:06 30.97091 121.66644 9199 ft 282 kts 282°
2026-05-06 07:06 30.97504 121.64443 9792 ft 282 kts 282°
2026-05-06 07:07 30.97927 121.62194 10236 ft 287 kts 282°
2026-05-06 07:07 30.98365 121.59860 10360 ft 304 kts 282°
2026-05-06 07:07 30.98823 121.57387 10486 ft 321 kts 282°
2026-05-06 07:07 30.99305 121.54768 10619 ft 339 kts 282°
2026-05-06 07:08 30.99814 121.52007 10753 ft 357 kts 282°
2026-05-06 07:08 31.00344 121.49130 11180 ft 367 kts 282°
2026-05-06 07:08 31.00883 121.46190 11743 ft 373 kts 282°
2026-05-06 07:08 31.01427 121.43215 12406 ft 376 kts 282°
2026-05-06 07:09 31.01979 121.40221 13089 ft 379 kts 282°
2026-05-06 07:09 31.02533 121.37215 13693 ft 383 kts 282°
2026-05-06 07:09 31.03093 121.34165 14214 ft 386 kts 282°
2026-05-06 07:09 31.03599 121.31407 14707 ft 388 kts 282°
2026-05-06 07:10 31.04163 121.28324 15243 ft 391 kts 282°
2026-05-06 07:10 31.04732 121.25208 15785 ft 393 kts 282°
2026-05-06 07:10 31.05301 121.22085 16294 ft 396 kts 282°
2026-05-06 07:10 31.05938 121.18969 16703 ft 396 kts 289°
2026-05-06 07:11 31.07295 121.16148 16999 ft 405 kts 309°
2026-05-06 07:11 31.09417 121.13965 17471 ft 411 kts 326°
2026-05-06 07:11 31.12000 121.12501 17978 ft 416 kts 340°
2026-05-06 07:11 31.14862 121.11936 18367 ft 419 kts 355°
2026-05-06 07:12 31.17804 121.11835 18596 ft 427 kts 356°
2026-05-06 07:12 31.20792 121.11767 18981 ft 429 kts 356°
2026-05-06 07:12 31.23777 121.11653 19422 ft 429 kts 355°
2026-05-06 07:12 31.26764 121.11495 19861 ft 430 kts 354°
2026-05-06 07:13 31.29760 121.11319 20252 ft 432 kts 354°
2026-05-06 07:13 31.32736 121.11141 20625 ft 435 kts 354°
2026-05-06 07:13 31.35761 121.10979 21009 ft 437 kts 356°
2026-05-06 07:13 31.38819 121.11086 21385 ft 441 kts
2026-05-06 07:14 31.41884 121.11365 21753 ft 444 kts
2026-05-06 07:14 31.44952 121.11430 21988 ft 440 kts 349°
2026-05-06 07:14 31.47849 121.10384 22184 ft 433 kts 331°
2026-05-06 07:14 31.50554 121.08804 22375 ft 437 kts 332°
2026-05-06 07:15 31.53317 121.07262 22719 ft 440 kts 332°
2026-05-06 07:15 31.56095 121.05761 23141 ft 440 kts 333°
2026-05-06 07:15 31.58882 121.04278 23546 ft 441 kts 333°
2026-05-06 07:15 31.61683 121.02795 23851 ft 442 kts 333°
2026-05-06 07:16 31.64489 121.01307 24124 ft 444 kts 333°
2026-05-06 07:16 31.67305 120.99810 24413 ft 445 kts 333°
2026-05-06 07:16 31.70132 120.98305 24704 ft 447 kts 333°
2026-05-06 07:16 31.72974 120.96789 24991 ft 448 kts 333°
2026-05-06 07:17 31.75820 120.95270 25294 ft 450 kts 333°
2026-05-06 07:17 31.78675 120.93745 25586 ft 451 kts 332°
2026-05-06 07:17 31.81495 120.92236 25852 ft 453 kts 332°
2026-05-06 07:17 31.84370 120.90697 26132 ft 454 kts 332°
2026-05-06 07:18 31.87252 120.89154 26403 ft 456 kts 332°
2026-05-06 07:18 31.90147 120.87603 26677 ft 458 kts 332°
2026-05-06 07:18 31.93054 120.86045 26950 ft 459 kts 332°
2026-05-06 07:18 31.95959 120.84487 27215 ft 460 kts 332°
2026-05-06 07:19 31.98883 120.82914 27475 ft 462 kts 332°
2026-05-06 07:19 32.01821 120.81331 27726 ft 464 kts 332°
2026-05-06 07:19 32.04751 120.79752 27972 ft 466 kts 332°
2026-05-06 07:19 32.07714 120.78154 28206 ft 467 kts 332°
2026-05-06 07:20 32.10666 120.76550 28425 ft 465 kts 330°
2026-05-06 07:20 32.13350 120.74448 28467 ft 463 kts 314°
2026-05-06 07:20 32.15373 120.71517 28621 ft 461 kts 300°
2026-05-06 07:20 32.16794 120.68195 28886 ft 460 kts 290°
2026-05-06 07:21 32.17621 120.64559 29102 ft 458 kts 277°
2026-05-06 07:21 32.17922 120.60799 29224 ft 461 kts 275°
2026-05-06 07:21 32.18167 120.57027 29366 ft 463 kts 275°
2026-05-06 07:21 32.18419 120.53235 29574 ft 464 kts 275°
2026-05-06 07:22 32.18695 120.49435 29788 ft 464 kts 276°
2026-05-06 07:22 32.18992 120.45641 30025 ft 464 kts 276°
2026-05-06 07:22 32.19300 120.41856 30268 ft 463 kts 276°
2026-05-06 07:22 32.19612 120.38073 30467 ft 463 kts 276°
2026-05-06 07:23 32.19922 120.34301 30677 ft 462 kts 276°
2026-05-06 07:23 32.20231 120.30511 30888 ft 462 kts 276°
2026-05-06 07:23 32.20537 120.26729 31102 ft 462 kts 276°
2026-05-06 07:23 32.20845 120.22954 31322 ft 462 kts 276°
2026-05-06 07:24 32.21156 120.19169 31540 ft 461 kts 276°
2026-05-06 07:24 32.21461 120.15451 31752 ft 461 kts 276°
2026-05-06 07:24 32.21768 120.11680 31960 ft 461 kts 276°
2026-05-06 07:24 32.22075 120.07905 32175 ft 461 kts 276°
2026-05-06 07:25 32.22379 120.04146 32390 ft 460 kts 276°
2026-05-06 07:25 32.22682 120.00378 32625 ft 460 kts 276°
2026-05-06 07:25 32.22983 119.96619 32815 ft 460 kts 276°
2026-05-06 07:25 32.23283 119.92856 33027 ft 460 kts 276°
2026-05-06 07:26 32.23585 119.89071 33236 ft 460 kts 276°
2026-05-06 07:26 32.23883 119.85315 33448 ft 460 kts 276°
2026-05-06 07:26 32.24228 119.81569 33605 ft 457 kts 282°
2026-05-06 07:26 32.25212 119.78057 33629 ft 459 kts 297°
2026-05-06 07:27 32.26910 119.74859 33778 ft 461 kts 307°
2026-05-06 07:27 32.29120 119.72105 33858 ft 465 kts 320°
2026-05-06 07:27 32.31758 119.69876 33898 ft 466 kts 323°
2026-05-06 07:28 32.37109 119.65504 33900 ft 467 kts 322°
2026-05-06 07:28 32.45011 119.58796 33893 ft 465 kts 322°
2026-05-06 07:29 32.50251 119.54291 33890 ft 464 kts 322°
2026-05-06 07:29 32.55472 119.49777 33889 ft 464 kts 321°
2026-05-06 07:30 32.60682 119.45266 33887 ft 463 kts 321°
2026-05-06 07:30 32.65854 119.40783 33887 ft 463 kts 321°
2026-05-06 07:31 32.71051 119.36273 33886 ft 463 kts 321°
2026-05-06 07:31 32.76252 119.31754 33884 ft 463 kts 321°
2026-05-06 07:32 32.81450 119.27229 33887 ft 463 kts 321°
2026-05-06 07:32 32.86645 119.22700 33882 ft 463 kts 321°
2026-05-06 07:33 32.91842 119.18164 33880 ft 463 kts 321°
2026-05-06 07:33 32.97039 119.13636 33881 ft 463 kts 321°
2026-05-06 07:34 33.02267 119.09122 33876 ft 463 kts 321°
2026-05-06 07:34 33.07479 119.04616 33872 ft 462 kts 321°
2026-05-06 07:35 33.12683 119.00101 33857 ft 462 kts 321°
2026-05-06 07:35 33.17841 118.95620 33860 ft 461 kts 321°
2026-05-06 07:36 33.23023 118.91117 33858 ft 460 kts 321°
2026-05-06 07:36 33.28188 118.86631 33859 ft 459 kts 321°
2026-05-06 07:37 33.33356 118.82151 33854 ft 458 kts 321°
2026-05-06 07:37 33.38523 118.77688 33854 ft 457 kts 321°
2026-05-06 07:38 33.43676 118.73226 33851 ft 457 kts 321°
2026-05-06 07:38 33.48794 118.68789 33848 ft 457 kts 321°
2026-05-06 07:39 33.53950 118.64326 33849 ft 457 kts 321°
2026-05-06 07:39 33.59101 118.59863 33845 ft 457 kts 321°
2026-05-06 07:40 33.63392 118.56138 33842 ft 458 kts 321°
2026-05-06 07:40 33.68551 118.51652 33843 ft 459 kts 320°
2026-05-06 07:41 33.73720 118.47151 33838 ft 459 kts 320°
2026-05-06 07:41 33.78904 118.42629 33835 ft 460 kts 320°
2026-05-06 07:42 33.84062 118.38123 33833 ft 461 kts 320°
2026-05-06 07:42 33.89291 118.33547 33826 ft 462 kts 320°
2026-05-06 07:43 33.94495 118.28988 33824 ft 463 kts 320°
2026-05-06 07:43 33.99711 118.24420 33819 ft 464 kts 320°
2026-05-06 07:44 34.04911 118.19887 33819 ft 464 kts 320°
2026-05-06 07:44 34.10141 118.15318 33815 ft 465 kts 320°
2026-05-06 07:45 34.15381 118.10723 33813 ft 465 kts 320°
2026-05-06 07:45 34.20608 118.06131 33815 ft 465 kts 320°
2026-05-06 07:46 34.25964 118.01697 33803 ft 469 kts 326°
2026-05-06 07:46 34.31913 117.98326 33811 ft 475 kts 334°
2026-05-06 07:47 34.38275 117.95955 33811 ft 479 kts 339°
2026-05-06 07:47 34.44642 117.93764 33804 ft 479 kts 339°
2026-05-06 07:48 34.51046 117.91517 33804 ft 478 kts 338°
2026-05-06 07:48 34.57450 117.89230 33803 ft 478 kts 338°
2026-05-06 07:49 34.63829 117.86940 33798 ft 477 kts 338°
2026-05-06 07:49 34.70183 117.84659 33800 ft 477 kts 338°
2026-05-06 07:50 34.76544 117.82373 33794 ft 476 kts 338°
2026-05-06 07:50 34.82848 117.80105 33798 ft 475 kts 338°
2026-05-06 07:51 34.89183 117.77839 33796 ft 474 kts 338°
2026-05-06 07:51 34.95513 117.75531 33796 ft 473 kts 338°
2026-05-06 07:52 35.01816 117.73229 33791 ft 472 kts 338°
2026-05-06 07:52 35.08098 117.70937 33789 ft 471 kts 338°
2026-05-06 07:53 35.14365 117.68640 33788 ft 469 kts 338°
2026-05-06 07:53 35.20615 117.66343 33785 ft 469 kts 337°
2026-05-06 07:54 35.26867 117.64040 33790 ft 469 kts 337°
2026-05-06 07:54 35.33076 117.61750 33784 ft 469 kts 337°
2026-05-06 07:55 35.39340 117.59437 33786 ft 470 kts 337°
2026-05-06 07:55 35.45604 117.57120 33785 ft 470 kts 337°
2026-05-06 07:56 35.51874 117.54797 33782 ft 471 kts 336°
2026-05-06 07:56 35.58117 117.52481 33776 ft 471 kts 336°
2026-05-06 07:57 35.64388 117.50150 33774 ft 471 kts 336°
2026-05-06 07:57 35.70669 117.47811 33774 ft 471 kts 336°
2026-05-06 07:58 35.76956 117.45467 33765 ft 471 kts 336°
2026-05-06 07:58 35.83224 117.43126 33767 ft 471 kts 336°
2026-05-06 07:59 35.89500 117.40777 33761 ft 470 kts 335°
2026-05-06 07:59 35.95753 117.38434 33760 ft 470 kts 335°
2026-05-06 08:00 36.01994 117.36094 33759 ft 469 kts 335°
2026-05-06 08:00 36.08251 117.33778 33757 ft 469 kts 335°
2026-05-06 08:01 36.14506 117.31466 33756 ft 468 kts 335°
2026-05-06 08:01 36.20750 117.29150 33759 ft 468 kts 335°
2026-05-06 08:02 36.26941 117.26846 33754 ft 467 kts 335°
2026-05-06 08:02 36.33176 117.24521 33758 ft 467 kts 335°
2026-05-06 08:03 36.39395 117.22200 33756 ft 467 kts 335°
2026-05-06 08:03 36.45468 117.19492 33754 ft 460 kts 329°
2026-05-06 08:04 36.51362 117.16392 33748 ft 460 kts 329°
2026-05-06 08:04 36.57251 117.13269 33767 ft 456 kts 328°
2026-05-06 08:05 36.63129 117.10172 33748 ft 460 kts 329°
2026-05-06 08:05 36.69010 117.07124 33742 ft 462 kts 329°
2026-05-06 08:06 36.74965 117.04023 33759 ft 463 kts 329°
2026-05-06 08:06 36.80911 117.00912 33758 ft 464 kts 329°
2026-05-06 08:07 36.86879 116.97781 33755 ft 465 kts 329°
2026-05-06 08:07 36.92805 116.94667 33756 ft 465 kts 329°
2026-05-06 08:08 36.98762 116.91530 33755 ft 464 kts 329°
2026-05-06 08:08 37.04705 116.88396 33755 ft 462 kts 329°
2026-05-06 08:09 37.10626 116.85268 33756 ft 460 kts 329°
2026-05-06 08:09 37.16516 116.82150 33757 ft 459 kts 329°
2026-05-06 08:10 37.22376 116.79122 33765 ft 461 kts 332°
2026-05-06 08:10 37.28554 116.76742 33776 ft 464 kts 335°
2026-05-06 08:11 37.34745 116.74458 33778 ft 464 kts 335°
2026-05-06 08:11 37.40941 116.72140 33782 ft 464 kts 335°
2026-05-06 08:12 37.47145 116.69793 33784 ft 466 kts 334°
2026-05-06 08:12 37.53362 116.67431 33786 ft 467 kts 334°
2026-05-06 08:13 37.59553 116.65076 33792 ft 468 kts 334°
2026-05-06 08:13 37.65799 116.62698 33796 ft 470 kts 335°
2026-05-06 08:14 37.72070 116.60306 33802 ft 471 kts 335°
2026-05-06 08:14 37.78366 116.57900 33804 ft 472 kts 335°
2026-05-06 08:15 37.84629 116.55503 33801 ft 473 kts 335°
2026-05-06 08:15 37.90944 116.53081 33803 ft 474 kts 334°
2026-05-06 08:16 37.97056 116.50150 33809 ft 464 kts 325°
2026-05-06 08:16 38.02552 116.46018 33814 ft 454 kts 316°
2026-05-06 08:17 38.07640 116.41265 33818 ft 454 kts 316°
2026-05-06 08:17 38.12741 116.36571 33819 ft 456 kts 316°
2026-05-06 08:18 38.17872 116.31837 33825 ft 456 kts 316°
2026-05-06 08:18 38.23135 116.27293 33813 ft 467 kts 327°
2026-05-06 08:19 38.26295 116.26059 33828 ft 486 kts 342°
2026-05-06 08:19 38.29720 116.25748 33826 ft 503 kts 355°
2026-05-06 08:19 38.33221 116.26533 33835 ft 517 kts
2026-05-06 08:19 38.36688 116.27788 33837 ft 520 kts
2026-05-06 08:20 38.43645 116.30427 33839 ft 522 kts
2026-05-06 08:20 38.50640 116.32921 33837 ft 523 kts
2026-05-06 08:21 38.57681 116.35338 33836 ft 523 kts
2026-05-06 08:21 38.64722 116.37769 33835 ft 524 kts
2026-05-06 08:22 38.71755 116.40236 33834 ft 524 kts
2026-05-06 08:22 38.78741 116.42709 33835 ft 523 kts
2026-05-06 08:23 38.85754 116.45194 33835 ft 522 kts
2026-05-06 08:23 38.92753 116.47675 33831 ft 521 kts
2026-05-06 08:24 38.99736 116.50153 33832 ft 520 kts
2026-05-06 08:24 39.06675 116.52621 33837 ft 520 kts
2026-05-06 08:25 39.13652 116.55109 33830 ft 521 kts
2026-05-06 08:25 39.20641 116.57673 33826 ft 526 kts
2026-05-06 08:26 39.27577 116.60827 33831 ft 530 kts 12°
2026-05-06 08:26 39.34512 116.64124 33830 ft 531 kts 12°
2026-05-06 08:27 39.40282 116.66843 33834 ft 532 kts 11°
2026-05-06 08:27 39.47268 116.70102 33837 ft 534 kts 11°
2026-05-06 08:28 39.54280 116.73371 33838 ft 535 kts 11°
2026-05-06 08:28 39.61288 116.76650 33848 ft 536 kts 11°
2026-05-06 08:29 39.68270 116.79927 33853 ft 537 kts 11°
2026-05-06 08:29 39.75331 116.83159 33846 ft 532 kts
2026-05-06 08:30 39.78873 116.84122 33848 ft 520 kts 358°
2026-05-06 08:30 39.82491 116.84492 33854 ft 510 kts 351°
2026-05-06 08:30 39.85961 116.84357 33850 ft 499 kts 343°
2026-05-06 08:30 39.89368 116.83704 33851 ft 494 kts 340°
2026-05-06 08:31 39.96179 116.82229 33847 ft 495 kts 340°
2026-05-06 08:31 40.02967 116.80813 33845 ft 498 kts 340°
2026-05-06 08:32 40.09877 116.79430 33843 ft 500 kts 340°
2026-05-06 08:32 40.16718 116.78068 33842 ft 501 kts 340°
2026-05-06 08:33 40.23622 116.76686 33846 ft 502 kts 340°
2026-05-06 08:33 40.30526 116.75298 33845 ft 502 kts 340°
2026-05-06 08:34 40.40454 116.71933 33843 ft 487 kts 331°
2026-05-06 08:35 40.46911 116.69238 33848 ft 487 kts 331°
2026-05-06 08:35 40.53406 116.66580 33845 ft 489 kts 332°
2026-05-06 08:36 40.59920 116.63952 33840 ft 488 kts 332°
2026-05-06 08:36 40.66361 116.61348 33853 ft 488 kts 332°
2026-05-06 08:37 40.72870 116.58706 33845 ft 488 kts 331°
2026-05-06 08:37 40.79507 116.56517 33847 ft 500 kts 340°
2026-05-06 08:38 40.86549 116.55723 33846 ft 509 kts 346°
2026-05-06 08:38 40.93578 116.55174 33838 ft 508 kts 345°
2026-05-06 08:39 41.00609 116.54557 33844 ft 505 kts 345°
2026-05-06 08:39 41.07613 116.53888 33847 ft 503 kts 345°
2026-05-06 08:40 41.14579 116.53218 33849 ft 501 kts 345°
2026-05-06 08:40 41.21453 116.52305 33827 ft 485 kts 336°
2026-05-06 08:40 41.24669 116.51132 33852 ft 471 kts 329°
2026-05-06 08:41 41.27688 116.49542 33857 ft 460 kts 323°
2026-05-06 08:41 41.33133 116.45396 33862 ft 449 kts 317°
2026-05-06 08:42 41.38439 116.41125 33877 ft 448 kts 317°
2026-05-06 08:42 41.43797 116.36847 33878 ft 449 kts 318°
2026-05-06 08:43 41.49172 116.32580 33884 ft 449 kts 318°
2026-05-06 08:43 41.54544 116.28319 33896 ft 449 kts 318°
2026-05-06 08:44 41.59923 116.24042 33899 ft 449 kts 318°
2026-05-06 08:44 41.65284 116.19768 33903 ft 449 kts 318°
2026-05-06 08:45 41.70656 116.15478 33910 ft 448 kts 318°
2026-05-06 08:45 41.76004 116.11200 33903 ft 447 kts 318°
2026-05-06 08:46 41.81319 116.06937 33912 ft 447 kts 318°
2026-05-06 08:46 41.86653 116.02651 33917 ft 447 kts 318°
2026-05-06 08:47 41.91959 115.98337 33913 ft 442 kts 314°
2026-05-06 08:47 41.94309 115.95776 33920 ft 428 kts 306°
2026-05-06 08:47 41.96329 115.92883 33929 ft 423 kts 301°
2026-05-06 08:48 41.99577 115.86383 33920 ft 417 kts 290°
2026-05-06 08:48 42.02308 115.79516 33927 ft 420 kts 290°
2026-05-06 08:49 42.05078 115.72565 33931 ft 422 kts 290°
2026-05-06 08:49 42.07871 115.65616 33931 ft 422 kts 290°
2026-05-06 08:50 42.10669 115.58667 33929 ft 420 kts 290°
2026-05-06 08:50 42.13431 115.51787 33936 ft 418 kts 290°
2026-05-06 08:51 42.16189 115.44900 33945 ft 416 kts 290°
2026-05-06 08:51 42.18928 115.38041 33944 ft 414 kts 289°
2026-05-06 08:52 42.21566 115.31162 33949 ft 406 kts 283°
2026-05-06 08:52 42.22853 115.23904 33960 ft 396 kts 273°
2026-05-06 08:53 42.23017 115.16521 33973 ft 394 kts 262°
2026-05-06 08:53 42.22478 115.09152 33972 ft 399 kts 262°
2026-05-06 08:54 42.21921 115.01674 33969 ft 401 kts 262°
2026-05-06 08:54 42.21380 114.94169 33968 ft 401 kts 262°
2026-05-06 08:55 42.20848 114.86679 33971 ft 400 kts 262°
2026-05-06 08:55 42.20321 114.79276 33982 ft 398 kts 262°
2026-05-06 08:56 42.19790 114.71877 33988 ft 395 kts 262°
2026-05-06 08:56 42.19255 114.64499 33989 ft 394 kts 262°
2026-05-06 08:57 42.18719 114.57170 33983 ft 392 kts 262°
2026-05-06 08:57 42.18179 114.49860 33992 ft 391 kts 262°
2026-05-06 08:58 42.17635 114.42564 34000 ft 391 kts 262°
2026-05-06 08:58 42.17091 114.35318 34002 ft 391 kts 262°
2026-05-06 08:59 42.16538 114.28024 34015 ft 391 kts 262°
2026-05-06 08:59 42.15980 114.20718 34018 ft 392 kts 262°
2026-05-06 09:00 42.15415 114.13388 34016 ft 393 kts 262°
2026-05-06 09:00 42.14845 114.06051 34011 ft 393 kts 261°
2026-05-06 09:01 42.14270 113.98716 34011 ft 394 kts 261°
2026-05-06 09:01 42.13689 113.91374 34028 ft 393 kts 261°
2026-05-06 09:02 42.13110 113.84089 34031 ft 393 kts 261°
2026-05-06 09:02 42.12521 113.76754 34041 ft 394 kts 261°
2026-05-06 09:03 42.11927 113.69415 34030 ft 394 kts 261°
2026-05-06 09:03 42.11328 113.62062 34045 ft 394 kts 261°
2026-05-06 09:04 42.10729 113.54775 34038 ft 394 kts 261°
2026-05-06 09:04 42.09925 113.47498 34049 ft 392 kts 256°
2026-05-06 09:05 42.08570 113.40382 34060 ft 392 kts 255°
2026-05-06 09:05 42.07217 113.33260 34063 ft 393 kts 255°
2026-05-06 09:06 42.05862 113.26119 34056 ft 394 kts 255°
2026-05-06 09:06 42.04513 113.19023 34070 ft 394 kts 255°
2026-05-06 09:07 42.03149 113.11876 34072 ft 395 kts 255°
2026-05-06 09:07 42.01779 113.04725 34077 ft 395 kts 255°
2026-05-06 09:08 42.00404 112.97572 34080 ft 395 kts 255°
2026-05-06 09:08 41.99019 112.90397 34204 ft 397 kts 255°
2026-05-06 09:08 41.98325 112.86811 34375 ft 396 kts 255°
2026-05-06 09:09 41.97631 112.83229 34537 ft 396 kts 255°
2026-05-06 09:09 41.96937 112.79650 34719 ft 396 kts 255°
2026-05-06 09:09 41.96241 112.76072 34857 ft 396 kts 255°
2026-05-06 09:09 41.95543 112.72493 34992 ft 396 kts 255°
2026-05-06 09:10 41.95066 112.68843 35112 ft 398 kts 263°
2026-05-06 09:10 41.94977 112.65165 35237 ft 400 kts 267°
2026-05-06 09:10 41.95069 112.61421 35409 ft 401 kts 270°
2026-05-06 09:10 41.95369 112.57692 35600 ft 403 kts 276°
2026-05-06 09:11 41.96046 112.54016 35762 ft 406 kts 279°
2026-05-06 09:11 41.96805 112.50350 35898 ft 407 kts 280°
2026-05-06 09:11 41.97578 112.46689 36001 ft 408 kts 280°
2026-05-06 09:12 41.99107 112.39366 36117 ft 410 kts 280°
2026-05-06 09:12 42.00615 112.31985 36115 ft 409 kts 279°
2026-05-06 09:13 42.02108 112.24587 36116 ft 409 kts 279°
2026-05-06 09:13 42.03588 112.17203 36125 ft 408 kts 279°
2026-05-06 09:14 42.05061 112.09823 36119 ft 408 kts 279°
2026-05-06 09:14 42.06529 112.02443 36118 ft 408 kts 279°
2026-05-06 09:15 42.07744 111.96315 36125 ft 408 kts 279°
2026-05-06 09:15 42.09206 111.88918 36128 ft 408 kts 279°
2026-05-06 09:16 42.10661 111.81532 36134 ft 408 kts 280°
2026-05-06 09:16 42.12115 111.74122 36140 ft 409 kts 280°
2026-05-06 09:17 42.13563 111.66712 36136 ft 409 kts 280°
2026-05-06 09:17 42.15001 111.59325 36140 ft 410 kts 280°
2026-05-06 09:18 42.16442 111.51897 36142 ft 410 kts 280°
2026-05-06 09:18 42.17883 111.44446 36143 ft 410 kts 280°
2026-05-06 09:19 42.19306 111.36989 36147 ft 410 kts 278°
2026-05-06 09:19 42.19910 111.29443 36150 ft 406 kts 270°
2026-05-06 09:20 42.19752 111.21845 36149 ft 405 kts 262°
2026-05-06 09:20 42.18951 111.14320 36145 ft 405 kts 261°
2026-05-06 09:21 42.18108 111.06802 36150 ft 406 kts 262°
2026-05-06 09:21 42.17273 110.99254 36147 ft 407 kts 262°
2026-05-06 09:22 42.16446 110.91699 36151 ft 407 kts 262°
2026-05-06 09:22 42.15624 110.84193 36151 ft 408 kts 262°
2026-05-06 09:23 42.14794 110.76645 36153 ft 408 kts 262°
2026-05-06 09:23 42.13955 110.69066 36154 ft 408 kts 262°
2026-05-06 09:24 42.13112 110.61499 36154 ft 409 kts 262°
2026-05-06 09:24 42.12263 110.53917 36154 ft 409 kts 262°
2026-05-06 09:25 42.11415 110.46398 36154 ft 409 kts 262°
2026-05-06 09:25 42.10555 110.38822 36155 ft 409 kts 262°
2026-05-06 09:26 42.09689 110.31238 36160 ft 409 kts 262°
2026-05-06 09:26 42.08826 110.23723 36156 ft 409 kts 262°
2026-05-06 09:27 42.07953 110.16166 36160 ft 409 kts 262°
2026-05-06 09:27 42.07074 110.08599 36159 ft 409 kts 262°
2026-05-06 09:28 42.06191 110.01042 36160 ft 409 kts 262°
2026-05-06 09:28 42.05302 109.93486 36159 ft 409 kts 262°
2026-05-06 09:29 42.04407 109.85920 36158 ft 409 kts 262°
2026-05-06 09:29 42.03507 109.78354 36156 ft 410 kts 262°
2026-05-06 09:30 42.02601 109.70779 36172 ft 410 kts 262°
2026-05-06 09:30 42.01690 109.63212 36162 ft 410 kts 262°
2026-05-06 09:31 42.00772 109.55630 36156 ft 411 kts 262°
2026-05-06 09:31 41.99855 109.48092 36161 ft 411 kts 262°
2026-05-06 09:32 41.98927 109.40513 36167 ft 411 kts 262°
2026-05-06 09:32 41.97993 109.32930 36169 ft 411 kts 262°
2026-05-06 09:33 41.97054 109.25339 36172 ft 411 kts 262°
2026-05-06 09:33 41.96110 109.17759 36162 ft 411 kts 262°
2026-05-06 09:34 41.95160 109.10171 36171 ft 411 kts 262°
2026-05-06 09:34 41.94207 109.02602 36172 ft 411 kts 262°
2026-05-06 09:35 41.93247 108.95019 36170 ft 411 kts 262°
2026-05-06 09:35 41.92290 108.87500 36177 ft 411 kts 262°
2026-05-06 09:36 41.91320 108.79916 36169 ft 412 kts 262°
2026-05-06 09:36 41.90345 108.72342 36168 ft 412 kts 262°
2026-05-06 09:37 41.89363 108.64753 36175 ft 412 kts 262°
2026-05-06 09:37 41.88377 108.57171 36181 ft 412 kts 262°
2026-05-06 09:38 41.87384 108.49579 36185 ft 412 kts 262°
2026-05-06 09:38 41.86393 108.42038 36182 ft 413 kts 262°
2026-05-06 09:39 41.85389 108.34444 36183 ft 413 kts 262°
2026-05-06 09:39 41.84382 108.26863 36183 ft 413 kts 262°
2026-05-06 09:40 41.83367 108.19267 36178 ft 413 kts 262°
2026-05-06 09:40 41.81840 108.07901 36182 ft 413 kts 261°
2026-05-06 09:41 41.80814 108.00318 36185 ft 413 kts 261°
2026-05-06 09:41 41.79791 107.92797 36191 ft 413 kts 261°
2026-05-06 09:42 41.78752 107.85199 36192 ft 414 kts 261°
2026-05-06 09:42 41.77709 107.77608 36190 ft 414 kts 261°
2026-05-06 09:43 41.76660 107.70014 36194 ft 414 kts 261°
2026-05-06 09:43 41.75607 107.62431 36191 ft 414 kts 261°
2026-05-06 09:44 41.74548 107.54836 36195 ft 415 kts 261°
2026-05-06 09:44 41.73491 107.47299 36199 ft 415 kts 261°
2026-05-06 09:45 41.72420 107.39705 36192 ft 415 kts 261°
2026-05-06 09:45 41.71346 107.32116 36196 ft 415 kts 261°
2026-05-06 09:46 41.70265 107.24523 36196 ft 415 kts 261°
2026-05-06 09:46 41.69180 107.16936 36194 ft 415 kts 261°
2026-05-06 09:47 41.68088 107.09339 36198 ft 416 kts 261°
2026-05-06 09:47 41.66992 107.01752 36193 ft 416 kts 261°
2026-05-06 09:48 41.65889 106.94153 36201 ft 416 kts 261°
2026-05-06 09:48 41.64789 106.86612 36201 ft 416 kts 261°
2026-05-06 09:49 41.63676 106.79021 36199 ft 416 kts 261°
2026-05-06 09:49 41.62559 106.71436 36202 ft 416 kts 261°
2026-05-06 09:50 41.61435 106.63840 36198 ft 416 kts 261°
2026-05-06 09:50 41.60307 106.56253 36197 ft 416 kts 261°
2026-05-06 09:51 41.59182 106.48726 36198 ft 416 kts 261°
2026-05-06 09:51 41.58045 106.41145 36193 ft 416 kts 261°
2026-05-06 09:52 41.56903 106.33575 36194 ft 416 kts 261°
2026-05-06 09:52 41.55757 106.26009 36193 ft 416 kts 261°
2026-05-06 09:53 41.54608 106.18451 36190 ft 415 kts 261°
2026-05-06 09:53 41.53388 106.10911 36180 ft 416 kts 257°
2026-05-06 09:54 41.51444 106.03600 36181 ft 419 kts 251°
2026-05-06 09:54 41.49254 105.96395 36171 ft 419 kts 252°
2026-05-06 09:55 41.47079 105.89180 36165 ft 419 kts 252°
2026-05-06 09:55 41.44908 105.81973 36180 ft 419 kts 252°
2026-05-06 09:56 41.42727 105.74753 36172 ft 419 kts 252°
2026-05-06 09:56 41.40541 105.67534 36166 ft 420 kts 252°
2026-05-06 09:57 41.38365 105.60376 36164 ft 420 kts 251°
2026-05-06 09:57 41.36164 105.53181 36166 ft 419 kts 251°
2026-05-06 09:58 41.33953 105.45980 36162 ft 420 kts 251°
2026-05-06 09:58 41.31741 105.38787 36159 ft 420 kts 251°
2026-05-06 09:59 41.29526 105.31599 36158 ft 420 kts 251°
2026-05-06 09:59 41.27304 105.24410 36163 ft 420 kts 251°
2026-05-06 10:00 41.25086 105.17251 36157 ft 421 kts 251°
2026-05-06 10:00 41.22849 105.10053 36154 ft 421 kts 251°
2026-05-06 10:01 41.20989 105.04083 36156 ft 421 kts 251°
2026-05-06 10:01 41.18747 104.96900 36149 ft 421 kts 251°
2026-05-06 10:02 41.16498 104.89716 36156 ft 421 kts 251°
2026-05-06 10:02 41.14248 104.82550 36153 ft 420 kts 251°
2026-05-06 10:03 41.11997 104.75395 36151 ft 420 kts 251°
2026-05-06 10:03 41.09756 104.68292 36156 ft 420 kts 251°
2026-05-06 10:04 41.07496 104.61145 36140 ft 420 kts 251°
2026-05-06 10:04 41.05234 104.53999 36134 ft 418 kts 253°
2026-05-06 10:05 41.04500 104.50319 36172 ft 411 kts 265°
2026-05-06 10:05 41.04376 104.46538 36148 ft 410 kts 272°
2026-05-06 10:05 41.05334 104.39156 36152 ft 411 kts 288°
2026-05-06 10:06 41.07444 104.32070 36156 ft 414 kts 289°
2026-05-06 10:06 41.09574 104.24957 36144 ft 416 kts 289°
2026-05-06 10:07 41.11678 104.17790 36143 ft 417 kts 289°
2026-05-06 10:07 41.13762 104.10599 36138 ft 418 kts 288°
2026-05-06 10:08 41.15842 104.03381 36136 ft 418 kts 288°
2026-05-06 10:08 41.17915 103.96163 36135 ft 419 kts 288°
2026-05-06 10:09 41.19971 103.88988 36132 ft 418 kts 288°
2026-05-06 10:09 41.22034 103.81770 36131 ft 418 kts 288°
2026-05-06 10:10 41.24092 103.74547 36133 ft 418 kts 288°
2026-05-06 10:10 41.26142 103.67332 36130 ft 417 kts 288°
2026-05-06 10:11 41.28189 103.60108 36121 ft 417 kts 288°
2026-05-06 10:11 41.30231 103.52881 36122 ft 417 kts 288°
2026-05-06 10:12 41.32265 103.45663 36122 ft 417 kts 288°
2026-05-06 10:12 41.34295 103.38436 36121 ft 417 kts 288°
2026-05-06 10:13 41.36320 103.31209 36118 ft 417 kts 288°
2026-05-06 10:13 41.38339 103.23981 36119 ft 417 kts 288°
2026-05-06 10:14 41.40346 103.16775 36118 ft 417 kts 288°
2026-05-06 10:14 41.42359 103.09528 36111 ft 417 kts 288°
2026-05-06 10:15 41.44371 103.02267 36111 ft 417 kts 288°
2026-05-06 10:15 41.46334 102.94977 36110 ft 417 kts 287°
2026-05-06 10:16 41.48172 102.87642 36107 ft 417 kts 287°
2026-05-06 10:16 41.50018 102.80337 36102 ft 418 kts 287°
2026-05-06 10:17 41.52037 102.73068 36106 ft 418 kts 288°
2026-05-06 10:17 41.54110 102.65799 36101 ft 418 kts 289°
2026-05-06 10:18 41.56202 102.58552 36102 ft 418 kts 289°
2026-05-06 10:18 41.58293 102.51289 36096 ft 419 kts 288°
2026-05-06 10:19 41.60361 102.44067 36096 ft 419 kts 288°
2026-05-06 10:19 41.62435 102.36795 36099 ft 419 kts 288°
2026-05-06 10:20 41.64508 102.29506 36093 ft 419 kts 288°
2026-05-06 10:20 41.66575 102.22217 36094 ft 419 kts 288°
2026-05-06 10:21 41.68639 102.14914 36092 ft 419 kts 288°
2026-05-06 10:21 41.70685 102.07656 36091 ft 419 kts 288°
2026-05-06 10:22 41.72740 102.00348 36087 ft 420 kts 288°
2026-05-06 10:22 41.74791 101.93031 36083 ft 420 kts 288°
2026-05-06 10:23 41.76838 101.85707 36083 ft 420 kts 288°
2026-05-06 10:23 41.78882 101.78372 36086 ft 420 kts 288°
2026-05-06 10:24 41.80922 101.71030 36081 ft 420 kts 288°
2026-05-06 10:24 41.82944 101.63731 36081 ft 420 kts 288°
2026-05-06 10:25 41.84976 101.56376 36083 ft 420 kts 288°
2026-05-06 10:25 41.87005 101.49008 36084 ft 420 kts 288°
2026-05-06 10:26 41.89026 101.41649 36084 ft 420 kts 288°
2026-05-06 10:26 41.91045 101.34274 36082 ft 421 kts 288°
2026-05-06 10:27 41.93064 101.26872 36121 ft 423 kts 289°
2026-05-06 10:27 41.95096 101.19411 36087 ft 426 kts 289°
2026-05-06 10:28 41.97116 101.11964 36072 ft 428 kts 288°
2026-05-06 10:28 41.98501 101.04198 36079 ft 429 kts 279°
2026-05-06 10:29 41.99018 100.96200 36077 ft 430 kts 271°
2026-05-06 10:29 41.98975 100.88153 36071 ft 431 kts 270°
2026-05-06 10:30 41.98891 100.80070 36072 ft 432 kts 270°
2026-05-06 10:30 41.98819 100.71993 36071 ft 432 kts 271°
2026-05-06 10:31 41.98756 100.63924 36068 ft 432 kts 271°
2026-05-06 10:31 41.98694 100.55859 36069 ft 431 kts 270°
2026-05-06 10:32 41.98627 100.47851 36067 ft 431 kts 270°
2026-05-06 10:32 41.98553 100.39791 36068 ft 431 kts 270°
2026-05-06 10:33 41.98474 100.31719 36065 ft 431 kts 270°
2026-05-06 10:33 41.98389 100.23650 36061 ft 432 kts 270°
2026-05-06 10:34 41.98298 100.15576 36060 ft 432 kts 270°
2026-05-06 10:34 41.98202 100.07502 36059 ft 432 kts 270°
2026-05-06 10:35 41.98100 99.99469 36059 ft 432 kts 270°
2026-05-06 10:35 41.97992 99.91386 36060 ft 433 kts 270°
2026-05-06 10:36 41.97878 99.83299 36062 ft 433 kts 270°
2026-05-06 10:36 41.97759 99.75234 36061 ft 433 kts 270°
2026-05-06 10:37 41.97634 99.67137 36057 ft 434 kts 270°
2026-05-06 10:37 41.97503 99.59024 36059 ft 434 kts 270°
2026-05-06 10:38 41.97366 99.50883 36058 ft 435 kts 270°
2026-05-06 10:38 41.97223 99.42758 36056 ft 435 kts 270°
2026-05-06 10:39 41.97074 99.34629 36059 ft 435 kts 269°
2026-05-06 10:39 41.96921 99.26549 36070 ft 435 kts 269°
2026-05-06 10:40 41.96761 99.18418 36067 ft 436 kts 269°
2026-05-06 10:40 41.96595 99.10281 36071 ft 435 kts 269°
2026-05-06 10:41 41.96424 99.02150 36073 ft 435 kts 269°
2026-05-06 10:41 41.96246 98.94011 36072 ft 435 kts 269°
2026-05-06 10:42 41.96062 98.85865 36074 ft 435 kts 269°
2026-05-06 10:42 41.95873 98.77726 36079 ft 435 kts 269°
2026-05-06 10:43 41.95679 98.69606 36080 ft 435 kts 269°
2026-05-06 10:44 41.95378 98.57466 36083 ft 435 kts 269°
2026-05-06 10:44 41.95169 98.49334 36087 ft 436 kts 269°
2026-05-06 10:45 41.94954 98.41187 36084 ft 436 kts 269°
2026-05-06 10:45 41.94733 98.33023 36080 ft 436 kts 269°
2026-05-06 10:46 41.94507 98.24916 36084 ft 437 kts 268°
2026-05-06 10:46 41.94274 98.16758 36083 ft 437 kts 268°
2026-05-06 10:47 41.94036 98.08609 36089 ft 437 kts 268°
2026-05-06 10:47 41.93791 98.00429 36084 ft 437 kts 268°
2026-05-06 10:48 41.93542 97.92289 36085 ft 437 kts 268°
2026-05-06 10:48 41.93286 97.84141 36090 ft 437 kts 268°
2026-05-06 10:49 41.93069 97.77370 36087 ft 437 kts 268°
2026-05-06 10:49 41.92759 97.67898 36084 ft 437 kts 268°
2026-05-06 10:50 41.92531 97.61076 36085 ft 437 kts 268°
2026-05-06 10:50 41.92208 97.51591 36093 ft 437 kts 268°
2026-05-06 10:51 41.91972 97.44819 36090 ft 437 kts 268°
2026-05-06 10:51 41.91683 97.36679 36091 ft 437 kts 268°
2026-05-06 10:52 41.91387 97.28521 36099 ft 437 kts 268°
2026-05-06 10:52 41.91086 97.20373 36101 ft 437 kts 267°
2026-05-06 10:53 41.90779 97.12219 36099 ft 437 kts 267°
2026-05-06 10:53 41.90467 97.04068 36107 ft 437 kts 267°
2026-05-06 10:54 41.90148 96.95903 36112 ft 438 kts 267°
2026-05-06 10:54 41.89824 96.87743 36109 ft 438 kts 267°
2026-05-06 10:55 41.89493 96.79576 36107 ft 438 kts 267°
2026-05-06 10:55 41.89158 96.71436 36109 ft 439 kts 267°
2026-05-06 10:56 41.88816 96.63261 36114 ft 439 kts 267°
2026-05-06 10:56 41.88466 96.55069 36111 ft 439 kts 267°
2026-05-06 10:57 41.88112 96.46888 36114 ft 439 kts 267°
2026-05-06 10:57 41.87752 96.38710 36117 ft 439 kts 267°
2026-05-06 10:58 41.87387 96.30527 36117 ft 439 kts 266°
2026-05-06 10:58 41.87067 96.22405 36112 ft 439 kts 269°
2026-05-06 10:59 41.87015 96.14203 36117 ft 439 kts 270°
2026-05-06 10:59 41.86996 96.06013 36117 ft 439 kts 270°
2026-05-06 11:00 41.86959 95.97801 36114 ft 440 kts 269°
2026-05-06 11:00 41.86905 95.89582 36111 ft 440 kts 269°
2026-05-06 11:01 41.86844 95.81381 36107 ft 440 kts 269°
2026-05-06 11:01 41.86776 95.73166 36102 ft 441 kts 269°
2026-05-06 11:02 41.86703 95.64935 36091 ft 441 kts 269°
2026-05-06 11:02 41.86624 95.56759 36090 ft 441 kts 269°
2026-05-06 11:03 41.86540 95.48530 36089 ft 441 kts 269°
2026-05-06 11:03 41.86449 95.40291 36080 ft 441 kts 269°
2026-05-06 11:04 41.86354 95.32051 36076 ft 441 kts 269°
2026-05-06 11:04 41.86512 95.23847 36079 ft 440 kts 281°
2026-05-06 11:05 41.88728 95.16240 36063 ft 446 kts 298°
2026-05-06 11:05 41.92645 95.09748 36059 ft 451 kts 309°
2026-05-06 11:06 41.96872 95.03475 36077 ft 453 kts 309°
2026-05-06 11:06 42.01093 94.97130 36054 ft 456 kts 308°
2026-05-06 11:07 42.05294 94.90718 36053 ft 457 kts 308°
2026-05-06 11:07 42.09494 94.84258 36046 ft 459 kts 308°
2026-05-06 11:08 42.13702 94.77771 36041 ft 461 kts 308°
2026-05-06 11:08 42.17900 94.71285 36035 ft 462 kts 309°
2026-05-06 11:09 42.22132 94.64735 36031 ft 463 kts 309°
2026-05-06 11:09 42.26365 94.58171 36029 ft 463 kts 309°
2026-05-06 11:10 42.30592 94.51599 36028 ft 464 kts 309°
2026-05-06 11:10 42.34805 94.45037 36023 ft 465 kts 309°
2026-05-06 11:11 42.39037 94.38428 36024 ft 465 kts 309°
2026-05-06 11:11 42.43279 94.31789 36025 ft 466 kts 309°
2026-05-06 11:12 42.47516 94.25144 36024 ft 467 kts 309°
2026-05-06 11:12 42.51758 94.18475 36027 ft 467 kts 309°
2026-05-06 11:13 42.56005 94.11784 36030 ft 468 kts 309°
2026-05-06 11:13 42.60257 94.05067 36030 ft 469 kts 309°
2026-05-06 11:14 42.64512 93.98331 36034 ft 470 kts 309°
2026-05-06 11:14 42.68741 93.91622 36031 ft 471 kts 309°
2026-05-06 11:15 42.73003 93.84844 36035 ft 472 kts 310°
2026-05-06 11:15 42.77275 93.78035 36029 ft 472 kts 310°
2026-05-06 11:16 42.81519 93.71197 36033 ft 473 kts 307°
2026-05-06 11:16 42.84942 93.63577 36031 ft 472 kts 296°
2026-05-06 11:17 42.87311 93.55228 36033 ft 472 kts 289°
2026-05-06 11:17 42.89376 93.46736 36025 ft 472 kts 288°
2026-05-06 11:18 42.91430 93.38288 36024 ft 472 kts 289°
2026-05-06 11:18 42.93518 93.29804 36024 ft 472 kts 289°
2026-05-06 11:19 42.95617 93.21304 36024 ft 471 kts 289°
2026-05-06 11:19 42.97712 93.12803 36023 ft 472 kts 289°
2026-05-06 11:20 42.99796 93.04309 36024 ft 472 kts 289°
2026-05-06 11:20 43.01861 92.95855 36027 ft 472 kts 289°
2026-05-06 11:21 43.03935 92.87334 36029 ft 473 kts 289°
2026-05-06 11:21 43.06002 92.78810 36030 ft 473 kts 289°
2026-05-06 11:22 43.08074 92.70234 36029 ft 473 kts 289°
2026-05-06 11:22 43.10126 92.61706 36028 ft 474 kts 289°
2026-05-06 11:23 43.12178 92.53146 36030 ft 474 kts 289°
2026-05-06 11:23 43.14233 92.44546 36027 ft 475 kts 289°
2026-05-06 11:24 43.16281 92.35938 36030 ft 475 kts 289°
2026-05-06 11:24 43.18314 92.27367 36035 ft 475 kts 289°
2026-05-06 11:25 43.20352 92.18734 36032 ft 476 kts 289°
2026-05-06 11:25 43.22381 92.10109 36029 ft 476 kts 289°
2026-05-06 11:26 43.24408 92.01454 36029 ft 476 kts 289°
2026-05-06 11:26 43.26425 91.92811 36035 ft 475 kts 289°
2026-05-06 11:27 43.28422 91.84219 36047 ft 475 kts 289°
2026-05-06 11:27 43.30424 91.75583 36036 ft 475 kts 289°
2026-05-06 11:28 43.32420 91.66930 36039 ft 475 kts 289°
2026-05-06 11:28 43.34412 91.58264 36037 ft 475 kts 289°
2026-05-06 11:29 43.36395 91.49603 36066 ft 475 kts 289°
2026-05-06 11:29 43.38373 91.40921 36071 ft 476 kts 289°
2026-05-06 11:30 43.40347 91.32225 36082 ft 476 kts 289°
2026-05-06 11:30 43.42308 91.23556 36085 ft 477 kts 289°
2026-05-06 11:31 43.44273 91.14836 36103 ft 477 kts 289°
2026-05-06 11:31 43.46231 91.06104 36113 ft 478 kts 289°
2026-05-06 11:32 43.48190 90.97341 36108 ft 478 kts 289°
2026-05-06 11:32 43.50136 90.88601 36122 ft 477 kts 289°
2026-05-06 11:33 43.52072 90.79857 36136 ft 476 kts 288°
2026-05-06 11:33 43.54000 90.71122 36142 ft 477 kts 288°
2026-05-06 11:34 43.55929 90.62355 36150 ft 477 kts 288°
2026-05-06 11:34 43.57838 90.53631 36158 ft 478 kts 288°
2026-05-06 11:35 43.59752 90.44849 36163 ft 478 kts 288°
2026-05-06 11:35 43.61660 90.36063 36169 ft 478 kts 288°
2026-05-06 11:36 43.63562 90.27267 36174 ft 478 kts 288°
2026-05-06 11:36 43.65457 90.18468 36171 ft 478 kts 288°
2026-05-06 11:37 43.67348 90.09650 36165 ft 478 kts 288°
2026-05-06 11:37 43.68955 90.02335 36165 ft 478 kts 289°
2026-05-06 11:38 43.70964 89.93582 36155 ft 477 kts 289°
2026-05-06 11:38 43.72964 89.84837 36151 ft 477 kts 289°
2026-05-06 11:39 43.74941 89.76089 36150 ft 477 kts 289°
2026-05-06 11:39 43.76907 89.67336 36145 ft 476 kts 289°
2026-05-06 11:40 43.78867 89.58577 36149 ft 476 kts 289°
2026-05-06 11:40 43.80827 89.49812 36145 ft 476 kts 289°
2026-05-06 11:41 43.82838 89.41130 36144 ft 476 kts 289°
2026-05-06 11:41 43.84883 89.32392 36143 ft 476 kts 289°
2026-05-06 11:42 43.86909 89.23654 36146 ft 476 kts 289°
2026-05-06 11:42 43.88919 89.14918 36149 ft 476 kts 289°
2026-05-06 11:43 43.90928 89.06149 36153 ft 476 kts 289°
2026-05-06 11:43 43.92926 88.97391 36156 ft 476 kts 289°
2026-05-06 11:44 43.95911 88.84252 36157 ft 476 kts 289°
2026-05-06 11:44 43.97950 88.75564 36165 ft 475 kts 290°
2026-05-06 11:45 44.00172 88.66917 36165 ft 475 kts 291°
2026-05-06 11:45 44.02392 88.58278 36171 ft 475 kts 291°
2026-05-06 11:46 44.04579 88.49618 36164 ft 475 kts 290°
2026-05-06 11:46 44.06750 88.40936 36162 ft 474 kts 290°
2026-05-06 11:47 44.08912 88.32257 36149 ft 474 kts 290°
2026-05-06 11:47 44.11052 88.23641 36147 ft 474 kts 290°
2026-05-06 11:48 44.13201 88.14959 36130 ft 474 kts 290°
2026-05-06 11:48 44.15338 88.06282 36121 ft 472 kts 289°
2026-05-06 11:49 44.15971 88.01812 36115 ft 473 kts 272°
2026-05-06 11:49 44.15629 87.97247 36126 ft 477 kts 257°
2026-05-06 11:49 44.14458 87.92910 36115 ft 480 kts 242°
2026-05-06 11:49 44.12574 87.89087 36117 ft 481 kts 233°
2026-05-06 11:50 44.08426 87.81741 36110 ft 485 kts 233°
2026-05-06 11:50 44.04281 87.74303 36108 ft 487 kts 234°
2026-05-06 11:51 44.00175 87.66775 36104 ft 489 kts 234°
2026-05-06 11:51 43.96088 87.59269 36102 ft 490 kts 234°
2026-05-06 11:52 43.91968 87.51735 36099 ft 490 kts 234°
2026-05-06 11:52 43.88192 87.43907 36100 ft 488 kts 239°
2026-05-06 11:53 43.84566 87.35973 36113 ft 486 kts 239°
2026-05-06 11:53 43.80922 87.28081 36120 ft 485 kts 238°
2026-05-06 11:54 43.77268 87.20233 36128 ft 485 kts 238°
2026-05-06 11:54 43.73611 87.12399 36143 ft 484 kts 238°
2026-05-06 11:55 43.69938 87.04592 36162 ft 483 kts 238°
2026-05-06 11:55 43.66268 86.96826 36170 ft 483 kts 238°
2026-05-06 11:56 43.62589 86.89050 36181 ft 483 kts 238°
2026-05-06 11:56 43.58937 86.81347 36192 ft 483 kts 238°
2026-05-06 11:57 43.55671 86.73331 36197 ft 478 kts 254°
2026-05-06 11:57 43.54985 86.68846 36212 ft 476 kts 266°
2026-05-06 11:57 43.54980 86.64315 36217 ft 474 kts 279°
2026-05-06 11:58 43.56169 86.55382 36221 ft 474 kts 281°
2026-05-06 11:58 43.57247 86.46368 36224 ft 476 kts 279°
2026-05-06 11:59 43.58191 86.37306 36218 ft 478 kts 279°
2026-05-06 11:59 43.59124 86.28225 36228 ft 478 kts 279°
2026-05-06 12:00 43.60069 86.19144 36218 ft 478 kts 279°
2026-05-06 12:00 43.61006 86.10081 36223 ft 476 kts 279°
2026-05-06 12:01 43.61963 86.01080 36216 ft 475 kts 279°
2026-05-06 12:01 43.62953 85.92068 36220 ft 474 kts 279°
2026-05-06 12:02 43.63920 85.83071 36207 ft 473 kts 279°
2026-05-06 12:02 43.64678 85.74104 36213 ft 472 kts 277°
2026-05-06 12:03 43.65345 85.65093 36216 ft 472 kts 277°
2026-05-06 12:03 43.66033 85.56079 36223 ft 471 kts 277°
2026-05-06 12:04 43.66731 85.47076 36227 ft 471 kts 277°
2026-05-06 12:04 43.67429 85.38059 36231 ft 473 kts 277°
2026-05-06 12:05 43.68119 85.29014 36233 ft 474 kts 277°
2026-05-06 12:05 43.68804 85.19949 36231 ft 474 kts 277°
2026-05-06 12:06 43.68621 85.10946 36243 ft 475 kts 257°
2026-05-06 12:06 43.65989 85.02617 36236 ft 476 kts 238°
2026-05-06 12:07 43.62308 84.94966 36252 ft 478 kts 237°
2026-05-06 12:07 43.58623 84.87306 36236 ft 480 kts 237°
2026-05-06 12:08 43.54977 84.79586 36224 ft 481 kts 238°
2026-05-06 12:08 43.51338 84.71839 36204 ft 481 kts 238°
2026-05-06 12:09 43.47697 84.64107 36197 ft 481 kts 238°
2026-05-06 12:09 43.44073 84.56444 36185 ft 480 kts 238°
2026-05-06 12:10 43.40426 84.48746 36160 ft 479 kts 238°
2026-05-06 12:10 43.36836 84.41048 36150 ft 475 kts 243°
2026-05-06 12:11 43.35627 84.36837 36151 ft 474 kts 257°
2026-05-06 12:11 43.35092 84.32430 36155 ft 472 kts 267°
2026-05-06 12:11 43.35636 84.23424 36153 ft 470 kts 278°
2026-05-06 12:12 43.36534 84.14549 36135 ft 473 kts 278°
2026-05-06 12:12 43.37385 84.05558 36127 ft 475 kts 277°
2026-05-06 12:13 43.38189 83.96534 36116 ft 477 kts 277°
2026-05-06 12:13 43.38981 83.87449 36109 ft 478 kts 277°
2026-05-06 12:14 43.39762 83.78431 36103 ft 478 kts 277°
2026-05-06 12:14 43.40543 83.69350 36101 ft 478 kts 277°
2026-05-06 12:15 43.41317 83.60273 36090 ft 477 kts 277°
2026-05-06 12:15 43.42083 83.51198 36084 ft 476 kts 277°
2026-05-06 12:16 43.42840 83.42153 36072 ft 475 kts 277°
2026-05-06 12:16 43.43434 83.33147 36070 ft 474 kts 274°
2026-05-06 12:17 43.43752 83.24087 36059 ft 474 kts 273°
2026-05-06 12:17 43.44040 83.15017 36053 ft 473 kts 273°
2026-05-06 12:18 43.44340 83.05960 36040 ft 473 kts 273°
2026-05-06 12:18 43.44647 82.96914 36031 ft 473 kts 273°
2026-05-06 12:19 43.44947 82.87925 36020 ft 473 kts 273°
2026-05-06 12:19 43.45243 82.78871 36013 ft 473 kts 273°
2026-05-06 12:20 43.45530 82.69825 36011 ft 473 kts 273°
2026-05-06 12:20 43.45810 82.60790 36003 ft 473 kts 273°
2026-05-06 12:21 43.46082 82.51740 36001 ft 472 kts 273°
2026-05-06 12:21 43.46346 82.42740 35999 ft 472 kts 273°
2026-05-06 12:22 43.46604 82.33716 36003 ft 472 kts 273°
2026-05-06 12:22 43.46855 82.24692 36001 ft 471 kts 273°
2026-05-06 12:23 43.47057 82.17196 36003 ft 471 kts 273°
2026-05-06 12:23 43.47295 82.08172 36001 ft 470 kts 273°
2026-05-06 12:24 43.47525 81.99168 36009 ft 470 kts 273°
2026-05-06 12:24 43.47747 81.90168 36013 ft 469 kts 273°
2026-05-06 12:25 43.47962 81.81232 36018 ft 469 kts 272°
2026-05-06 12:25 43.48169 81.72267 36024 ft 469 kts 272°
2026-05-06 12:26 43.48370 81.63310 36023 ft 468 kts 272°
2026-05-06 12:26 43.48564 81.54355 36028 ft 468 kts 272°
2026-05-06 12:27 43.48750 81.45397 36026 ft 466 kts 272°
2026-05-06 12:27 43.48930 81.36494 36039 ft 465 kts 272°
2026-05-06 12:28 43.49100 81.27636 36044 ft 464 kts 272°
2026-05-06 12:28 43.49265 81.18743 36048 ft 464 kts 272°
2026-05-06 12:29 43.49422 81.09876 36042 ft 463 kts 272°
2026-05-06 12:29 43.49572 81.01028 36048 ft 462 kts 272°
2026-05-06 12:30 43.49645 80.96592 36152 ft 463 kts 272°
2026-05-06 12:30 43.49717 80.92153 36384 ft 463 kts 272°
2026-05-06 12:30 43.49786 80.87726 36638 ft 462 kts 272°
2026-05-06 12:30 43.49853 80.83309 36895 ft 461 kts 272°
2026-05-06 12:31 43.49920 80.78879 37125 ft 461 kts 272°
2026-05-06 12:31 43.49984 80.74474 37327 ft 461 kts 272°
2026-05-06 12:31 43.50071 80.70049 37513 ft 461 kts 273°
2026-05-06 12:31 43.50227 80.65632 37692 ft 462 kts 274°
2026-05-06 12:32 43.50414 80.61229 37881 ft 462 kts 274°
2026-05-06 12:32 43.50608 80.56794 37977 ft 463 kts 274°
2026-05-06 12:32 43.50973 80.47966 38039 ft 465 kts 274°
2026-05-06 12:33 43.51309 80.39077 38038 ft 462 kts 274°
2026-05-06 12:33 43.51628 80.30252 38033 ft 460 kts 274°
2026-05-06 12:34 43.51939 80.21472 38034 ft 458 kts 273°